Погода в Альменеве

Россия / Курганская область     54°56′39″N   63°34′49″E
темп.,
°C
ветер,
м/с
пор.,
м/с
влажн.,
%
обл.,
%
осадки,
мм/ч
давл.,
гПа
погр.,
м
18 мая, ср
ср1823:00+11ююз47717 0.0 1004104
02:00+9юз387738 0.0 1005133
05:00+9ююз488278 0.0 1005156
08:00+12зюз4673100 0.0 1005420
11:00+15зюз5653100 0.0 10051336
14:00+17юз573910 0.0 10042209
17:00+17ююз574586 0.0 10031165
20:00+11зюз7127896 0.0 1003490
19 мая, чт
чт1923:00+10ююз3782100 0.1 1002568
02:00+9зюз5887100 1.1 1000454
05:00+9юз6108713 2.8 1001459
08:00+10зюз79748 0.0 1002693
11:00+13зюз7959100 0.4 10031594
14:00+14з8105494 0.3 10041725
17:00+10з8116946 0.6 10071192
20:00+10з611587 0.1 1008832
20 мая, пт
пт2023:00+7юз347056 0.1 100960
02:00+8юз51278100 0.0 1008386
05:00+7зюз511875 0.0 1008358
08:00+10з5772100 0.0 1009834
11:00+12з5649100 0.0 10091418
14:00+14з4545100 0.0 10091582
17:00+14ююз2346100 0.0 10071709
20:00+9всв2389100 2.1 1005186
21 мая, сб
сб2123:00+8св71295100 9.0 1001738
02:00+7св91396100 9.3 994481
05:00+7св6897100 12.5 993246
08:00+9юз1693100 0.0 993427
11:00+7з5794100 0.1 994641
14:00+6зсз5791100 0.2 996683
17:00+6зсз4688100 0.3 997880
20:00+5з3791100 0.1 997569
22 мая, вс
вс2223:00+5з4791100 0.2 997374
02:00+5з5794100 0.4 997852
05:00+4зюз6119298 1.0 999804
08:00+5зюз58815 0.1 1000875
11:00+9юз8115492 0.1 10011983
14:00+9юз81168100 0.6 10011461
17:00+11юз7125471 1.4 10002166
20:00+8юз4767100 0.2 1000175